| time (UTC) | temp F | wind direction | speed knots | gust knots | rain 1hr in | rain 24hr in | rain mn in | humidity % | barometer mb |
| 20260506115130 | 74 | 292 | 1.7 | 4.3 | 0.00 | 0.00 | 0.00 | 33 | 1111.0 |
| 20260506114129 | 73 | 315 | 0.0 | 1.7 | 0.00 | 0.00 | 0.00 | 32 | 1111.0 |
| 20260506113128 | 75 | 270 | 5.2 | 5.2 | 0.00 | 0.00 | 0.00 | 31 | 1111.0 |
| 20260506112128 | 76 | 270 | 3.5 | 3.5 | 0.00 | 0.00 | 0.00 | 31 | 1111.0 |
| 20260506111127 | 78 | 315 | 3.5 | 3.5 | 0.00 | 0.00 | 0.00 | 32 | 1111.0 |
| 20260506110127 | 77 | 292 | 0.0 | 0.9 | 0.00 | 0.00 | 0.00 | 32 | 1111.0 |
| 20260506105126 | 77 | 0 | 0.9 | 0.9 | 0.00 | 0.00 | 0.00 | 32 | 1111.0 |
| 20260506104126 | 75 | 112 | 0.0 | 0.0 | 0.00 | 0.00 | 0.00 | 33 | 1111.0 |
| 20260506103125 | 74 | 315 | 1.7 | 1.7 | 0.00 | 0.00 | 0.00 | 33 | 1111.0 |
| 20260506102124 | 75 | 22 | 0.0 | 0.9 | 0.00 | 0.00 | 0.00 | 32 | 1111.0 |
| 20260506101124 | 77 | 292 | 2.6 | 2.6 | 0.00 | 0.00 | 0.00 | 31 | 1111.0 |
| 20260506100123 | 77 | 45 | 0.0 | 2.6 | 0.00 | 0.00 | 0.00 | 31 | 1111.0 |
| 20260506095123 | 78 | 337 | 0.0 | 0.9 | 0.00 | 0.00 | 0.00 | 30 | 1111.0 |
| 20260506094122 | 78 | 337 | 4.3 | 4.3 | 0.00 | 0.00 | 0.00 | 31 | 1111.0 |
| 20260506093122 | 77 | 112 | 0.9 | 3.5 | 0.00 | 0.00 | 0.00 | 33 | 1111.0 |
| 20260506092121 | 77 | 22 | 0.9 | 3.5 | 0.00 | 0.00 | 0.00 | 35 | 1111.0 |
| 20260506091121 | 76 | 315 | 0.0 | 3.5 | 0.00 | 0.00 | 0.00 | 35 | 1111.0 |
| 20260506090120 | 76 | 67 | 1.7 | 1.7 | 0.00 | 0.00 | 0.00 | 34 | 1111.0 |
| 20260506085119 | 76 | 315 | 0.9 | 0.9 | 0.00 | 0.00 | 0.00 | 38 | 1111.0 |
| 20260506084119 | 75 | 67 | 0.0 | 1.7 | 0.00 | 0.00 | 0.00 | 37 | 1111.0 |
| 20260506083118 | 74 | 337 | 0.0 | 1.7 | 0.00 | 0.00 | 0.00 | 38 | 1111.0 |
| 20260506082118 | 73 | 337 | 0.0 | 1.7 | 0.00 | 0.00 | 0.00 | 38 | 1111.0 |
| 20260506081117 | 72 | 45 | 1.7 | 1.7 | 0.00 | 0.00 | 0.00 | 42 | 1111.0 |
| 20260506080116 | 70 | 112 | 3.5 | 3.5 | 0.00 | 0.00 | 0.00 | 44 | 1111.0 |
| 20260506073115 | 67 | 22 | 0.0 | 0.0 | 0.00 | 0.00 | 0.00 | 47 | 1111.0 |
| 20260506072114 | 66 | 22 | 0.0 | 1.7 | 0.00 | 0.00 | 0.00 | 48 | 1111.0 |
| 20260506071114 | 64 | 45 | 0.0 | 0.0 | 0.00 | 0.00 | 0.00 | 50 | 1111.0 |
| 20260506070113 | 63 | 22 | 0.0 | 0.9 | 0.00 | 0.00 | 0.00 | 52 | 1111.0 |
| 20260506062111 | 58 | 22 | 0.0 | 0.0 | 0.00 | 0.00 | 0.00 | 56 | 1111.0 |
| 20260506061110 | 57 | 112 | 0.0 | 0.0 | 0.00 | 0.00 | 0.00 | 57 | 1111.0 |
| 20260506061048 | 57 | 112 | 0.0 | 0.0 | 0.00 | 0.00 | 0.00 | 57 | 1111.0 |
| 20260506060110 | 55 | 135 | 0.0 | 0.0 | 0.00 | 0.00 | 0.00 | 59 | 1111.0 |
| 20260506051107 | 49 | 180 | 0.0 | 0.0 | 0.00 | 0.00 | 0.00 | 68 | 1111.0 |
| 20260506050106 | 47 | 180 | 0.0 | 0.0 | 0.00 | 0.00 | 0.00 | 69 | 1111.0 |
| 20260506045106 | 45 | 180 | 0.0 | 0.9 | 0.00 | 0.00 | 0.00 | 71 | 1111.0 |
| 20260506044105 | 43 | 180 | 0.0 | 0.0 | 0.00 | 0.00 | 0.00 | 72 | 1111.0 |
| 20260506043104 | 42 | 180 | 0.0 | 0.0 | 0.00 | 0.00 | 0.00 | 73 | 1111.0 |
| 20260506042104 | 42 | 180 | 0.0 | 0.0 | 0.00 | 0.00 | 0.00 | 74 | 1111.0 |
| 20260506041103 | 40 | 180 | 0.0 | 0.0 | 0.00 | 0.00 | 0.00 | 77 | 1111.0 |
| 20260506035102 | 33 | 180 | 0.0 | 0.9 | 0.00 | 0.00 | 0.00 | 79 | 1111.0 |
| 20260506034102 | 31 | 180 | 0.0 | 0.0 | 0.00 | 0.00 | 0.00 | 74 | 1111.0 |
| 20260506033101 | 31 | 180 | 0.0 | 0.0 | 0.00 | 0.00 | 0.00 | 74 | 1111.0 |
| 20260506032100 | 31 | 180 | 0.0 | 0.0 | 0.00 | 0.00 | 0.00 | 73 | 1111.0 |
| 20260506031100 | 31 | 180 | 0.0 | 0.0 | 0.00 | 0.00 | 0.00 | 73 | 1111.0 |
| 20260506030059 | 31 | 180 | 0.0 | 0.0 | 0.00 | 0.00 | 0.00 | 74 | 1111.0 |
| 20260506025059 | 31 | 180 | 0.9 | 0.9 | 0.00 | 0.00 | 0.00 | 73 | 1111.0 |
| 20260506023058 | 32 | 180 | 0.0 | 0.0 | 0.00 | 0.00 | 0.00 | 72 | 1111.0 |
| 20260506022057 | 32 | 180 | 0.0 | 0.0 | 0.00 | 0.00 | 0.00 | 72 | 1111.0 |
| 20260506021057 | 32 | 180 | 0.0 | 0.9 | 0.00 | 0.00 | 0.00 | 72 | 1111.0 |
| 20260506020056 | 32 | 180 | 0.0 | 0.0 | 0.00 | 0.00 | 0.00 | 71 | 1111.0 |
| 20260506015055 | 33 | 180 | 0.0 | 0.0 | 0.00 | 0.00 | 0.00 | 71 | 1111.0 |
| 20260506014055 | 33 | 180 | 0.0 | 0.0 | 0.00 | 0.00 | 0.00 | 71 | 1111.0 |
| 20260506013054 | 33 | 180 | 0.0 | 0.9 | 0.00 | 0.00 | 0.00 | 70 | 1111.0 |
| 20260506012054 | 34 | 180 | 0.0 | 0.9 | 0.00 | 0.00 | 0.00 | 70 | 1111.0 |
| 20260506011053 | 34 | 180 | 0.0 | 0.0 | 0.00 | 0.00 | 0.00 | 69 | 1111.0 |
| 20260506010053 | 34 | 180 | 0.0 | 0.0 | 0.00 | 0.00 | 0.00 | 69 | 1111.0 |
| 20260506005052 | 35 | 180 | 0.0 | 0.0 | 0.00 | 0.00 | 0.00 | 69 | 1111.0 |
| 20260506004051 | 35 | 180 | 0.0 | 0.0 | 0.00 | 0.00 | 0.00 | 69 | 1111.0 |
| 20260506003051 | 35 | 180 | 0.9 | 0.9 | 0.00 | 0.00 | 0.00 | 68 | 1111.0 |
| 20260506002050 | 35 | 180 | 0.0 | 0.0 | 0.00 | 0.00 | 0.00 | 68 | 1111.0 |
| 20260506001050 | 36 | 180 | 0.9 | 0.9 | 0.00 | 0.00 | 0.00 | 68 | 1111.0 |
| 20260506000049 | 36 | 180 | 0.0 | 0.0 | 0.00 | 0.00 | 0.00 | 67 | 1111.0 |
| 20260505235049 | 36 | 180 | 0.9 | 0.9 | 0.00 | 0.00 | 0.00 | 67 | 1111.0 |
| 20260505234048 | 37 | 180 | 0.0 | 0.0 | 0.00 | 0.00 | 0.00 | 66 | 1111.0 |
| 20260505233047 | 37 | 180 | 0.0 | 0.0 | 0.00 | 0.00 | 0.00 | 66 | 1111.0 |
| 20260505232047 | 37 | 180 | 0.9 | 1.7 | 0.00 | 0.00 | 0.00 | 66 | 1111.0 |
| 20260505231046 | 38 | 180 | 0.0 | 0.0 | 0.00 | 0.00 | 0.00 | 65 | 1111.0 |
| 20260505230046 | 38 | 180 | 0.0 | 0.0 | 0.00 | 0.00 | 0.00 | 64 | 1111.0 |
| 20260505225045 | 38 | 180 | 1.7 | 1.7 | 0.00 | 0.00 | 0.00 | 64 | 1111.0 |
| 20260505224045 | 39 | 180 | 0.0 | 0.0 | 0.00 | 0.00 | 0.00 | 63 | 1111.0 |
| 20260505223044 | 39 | 180 | 0.0 | 0.0 | 0.00 | 0.00 | 0.00 | 62 | 1111.0 |
| 20260505222043 | 40 | 180 | 0.0 | 0.0 | 0.00 | 0.00 | 0.00 | 61 | 1111.0 |
| 20260505221043 | 40 | 180 | 0.0 | 0.0 | 0.00 | 0.00 | 0.00 | 61 | 1111.0 |
| 20260505220042 | 41 | 180 | 0.0 | 0.0 | 0.00 | 0.00 | 0.00 | 61 | 1111.0 |
| 20260505215042 | 41 | 180 | 0.0 | 0.9 | 0.00 | 0.00 | 0.00 | 60 | 1111.0 |
| 20260505214041 | 42 | 180 | 0.0 | 0.0 | 0.00 | 0.00 | 0.00 | 60 | 1111.0 |
| 20260505213041 | 42 | 180 | 0.0 | 0.0 | 0.00 | 0.00 | 0.00 | 59 | 1111.0 |
| 20260505212040 | 43 | 180 | 0.0 | 0.0 | 0.00 | 0.00 | 0.00 | 59 | 1111.0 |
| 20260505211742 | 43 | 180 | 0.0 | 0.0 | 0.00 | 0.00 | 0.00 | 59 | 1111.0 |
| 20260505211039 | 43 | 180 | 0.0 | 0.0 | 0.00 | 0.00 | 0.00 | 59 | 1111.0 |
| 20260505210039 | 44 | 180 | 0.0 | 0.9 | 0.00 | 0.00 | 0.00 | 59 | 1111.0 |
| 20260505205038 | 44 | 180 | 0.9 | 0.9 | 0.00 | 0.00 | 0.00 | 59 | 1111.0 |
| 20260505204038 | 45 | 180 | 0.0 | 0.9 | 0.00 | 0.00 | 0.00 | 58 | 1111.0 |
| 20260505203037 | 46 | 202 | 0.0 | 0.0 | 0.00 | 0.00 | 0.00 | 57 | 1111.0 |
| 20260505202037 | 46 | 180 | 0.0 | 0.0 | 0.00 | 0.00 | 0.00 | 57 | 1111.0 |
| 20260505201036 | 46 | 180 | 0.0 | 0.9 | 0.00 | 0.00 | 0.00 | 57 | 1111.0 |
| 20260505200035 | 46 | 180 | 0.0 | 0.0 | 0.00 | 0.00 | 0.00 | 56 | 1111.0 |
| 20260505195035 | 47 | 202 | 0.0 | 1.7 | 0.00 | 0.00 | 0.00 | 55 | 1111.0 |
| 20260505194034 | 47 | 202 | 0.0 | 0.0 | 0.00 | 0.00 | 0.00 | 53 | 1111.0 |
| 20260505193034 | 49 | 202 | 0.0 | 0.0 | 0.00 | 0.00 | 0.00 | 52 | 1111.0 |
| 20260505192033 | 50 | 202 | 0.0 | 0.9 | 0.00 | 0.00 | 0.00 | 51 | 1111.0 |
| 20260505191033 | 50 | 202 | 0.0 | 0.0 | 0.00 | 0.00 | 0.00 | 50 | 1111.0 |
| 20260505190032 | 51 | 202 | 0.0 | 0.0 | 0.00 | 0.00 | 0.00 | 49 | 1111.0 |
| 20260505185031 | 52 | 202 | 0.0 | 0.0 | 0.00 | 0.00 | 0.00 | 48 | 1111.0 |
| 20260505184031 | 53 | 202 | 0.0 | 0.0 | 0.00 | 0.00 | 0.00 | 47 | 1111.0 |
| 20260505183030 | 53 | 202 | 0.0 | 0.0 | 0.00 | 0.00 | 0.00 | 46 | 1111.0 |
| 20260505182030 | 55 | 202 | 1.7 | 1.7 | 0.00 | 0.00 | 0.00 | 43 | 1111.0 |
| 20260505181029 | 56 | 202 | 1.7 | 1.7 | 0.00 | 0.00 | 0.00 | 41 | 1111.0 |
| 20260505180029 | 57 | 202 | 0.0 | 0.0 | 0.00 | 0.00 | 0.00 | 40 | 1111.0 |
| 20260505175028 | 59 | 202 | 0.0 | 0.0 | 0.00 | 0.00 | 0.00 | 38 | 1111.0 |
| 20260505174027 | 60 | 202 | 0.0 | 0.0 | 0.00 | 0.00 | 0.00 | 38 | 1111.0 |
| 20260505173027 | 62 | 202 | 0.0 | 0.0 | 0.00 | 0.00 | 0.00 | 35 | 1111.0 |
| 20260505172026 | 64 | 247 | 0.0 | 0.0 | 0.00 | 0.00 | 0.00 | 34 | 1111.0 |
| 20260505171026 | 66 | 247 | 0.0 | 0.0 | 0.00 | 0.00 | 0.00 | 32 | 1111.0 |
| 20260505170025 | 67 | 247 | 0.0 | 0.0 | 0.00 | 0.00 | 0.00 | 31 | 1111.0 |
| 20260505165025 | 69 | 202 | 0.0 | 0.9 | 0.00 | 0.00 | 0.00 | 29 | 1111.0 |
| 20260505164024 | 71 | 202 | 3.5 | 3.5 | 0.00 | 0.00 | 0.00 | 28 | 1111.0 |
| 20260505163023 | 73 | 270 | 1.7 | 2.6 | 0.00 | 0.00 | 0.00 | 26 | 1111.0 |
| 20260505162023 | 75 | 292 | 0.9 | 4.3 | 0.00 | 0.00 | 0.00 | 27 | 1111.0 |
| 20260505161325 | 76 | 225 | 4.3 | 5.2 | 0.00 | 0.00 | 0.00 | 25 | 1111.0 |
| 20260505161022 | 77 | 270 | 1.7 | 1.7 | 0.00 | 0.00 | 0.00 | 25 | 1111.0 |
| 20260505153020 | 79 | 202 | 0.9 | 2.6 | 0.00 | 0.00 | 0.00 | 26 | 1111.0 |
| 20260505152019 | 80 | 315 | 0.9 | 0.9 | 0.00 | 0.00 | 0.00 | 26 | 1111.0 |
| 20260505151019 | 79 | 315 | 0.0 | 0.0 | 0.00 | 0.00 | 0.00 | 26 | 1111.0 |
| 20260505125011 | 78 | 0 | 0.0 | 1.7 | 0.00 | 0.00 | 0.00 | 24 | 1111.0 |
| 20260505124010 | 78 | 315 | 1.7 | 2.6 | 0.00 | 0.00 | 0.00 | 25 | 1111.0 |
| 20260505123010 | 77 | 292 | 2.6 | 2.6 | 0.00 | 0.00 | 0.00 | 25 | 1111.0 |
| 20260505122009 | 77 | 270 | 0.0 | 0.0 | 0.00 | 0.00 | 0.00 | 22 | 1111.0 |
| 20260505121009 | 78 | 45 | 0.0 | 3.5 | 0.00 | 0.00 | 0.00 | 20 | 1111.0 |
| 20260505120008 | 79 | 337 | 5.2 | 7.8 | 0.00 | 0.00 | 0.00 | 20 | 1111.0 |